When you browse on this site, cookies collect data to enhance your experience and personalize the content and advertising you see.
Visit our Privacy Policy to learn more. By continuing to use the site, you agree to this use of cookies and data.
  • In Österreich
  • Länderverzeichnis
  • Für 7 Tage
  • Wassertemperatur
  • Wetterkarte
  • News
  • Widgets
  • user-avatar
    Anmelden

    Stündliche Wetter Puerto Tejada

    Heute, 22 September, Sonntag

    Zeit Temperatur Niederschläge Wind Luftdruck Luftfeuchtigkeit
    00:00 +21°C° 0.1 mm 1 m/S 679 mmHg 90%
    01:00 +21°C° 0.1 mm 1 m/S 679 mmHg 90%
    02:00 +19°C° 0.2 mm 0 m/S 679 mmHg 90%
    03:00 +19°C° 0.2 mm 0 m/S 678 mmHg 90%
    04:00 +19°C° 0.2 mm 0 m/S 678 mmHg 90%
    05:00 +19°C° 0 mm 0 m/S 679 mmHg 89%
    06:00 +19°C° 0 mm 0 m/S 679 mmHg 87%
    07:00 +20°C° 0 mm 0 m/S 680 mmHg 86%
    08:00 +22°C° 0 mm 0 m/S 680 mmHg 81%
    09:00 +26°C° 0 mm 1 m/S 681 mmHg 75%
    10:00 +28°C° 0 mm 1 m/S 681 mmHg 69%
    11:00 +29°C° 0.4 mm 1 m/S 681 mmHg 66%
    12:00 +29°C° 0.4 mm 1 m/S 680 mmHg 62%
    13:00 +30°C° 0.4 mm 1 m/S 680 mmHg 59%
    14:00 +29°C° 1.2 mm 1 m/S 679 mmHg 64%
    15:00 +28°C° 1.2 mm 1 m/S 678 mmHg 70%
    16:00 +27°C° 1.2 mm 1 m/S 677 mmHg 75%
    17:00 +26°C° 1.3 mm 1 m/S 678 mmHg 79%
    18:00 +25°C° 1.3 mm 1 m/S 678 mmHg 83%
    19:00 +24°C° 1.3 mm 1 m/S 679 mmHg 87%
    20:00 +23°C° 1 mm 1 m/S 679 mmHg 88%
    21:00 +23°C° 1 mm 1 m/S 679 mmHg 88%
    22:00 +22°C° 1 mm 1 m/S 680 mmHg 89%
    23:00 +22°C° 0.7 mm 1 m/S 679 mmHg 90%

    Morgen, 23 September, Montag

    Zeit Temperatur Niederschläge Wind Luftdruck Luftfeuchtigkeit
    00:00 +21°C° 0.7 mm 1 m/S 679 mmHg 90%
    01:00 +21°C° 0.7 mm 1 m/S 679 mmHg 90%
    02:00 +21°C° 0.4 mm 1 m/S 679 mmHg 90%
    03:00 +21°C° 0.4 mm 1 m/S 679 mmHg 90%
    04:00 +19°C° 0.4 mm 0 m/S 679 mmHg 90%
    05:00 +19°C° 0 mm 0 m/S 679 mmHg 89%
    06:00 +19°C° 0 mm 0 m/S 680 mmHg 88%
    07:00 +20°C° 0 mm 0 m/S 680 mmHg 87%
    08:00 +22°C° 0 mm 0 m/S 680 mmHg 81%
    09:00 +26°C° 0 mm 1 m/S 681 mmHg 74%
    10:00 +28°C° 0 mm 1 m/S 681 mmHg 68%
    11:00 +29°C° 0.4 mm 1 m/S 681 mmHg 64%
    12:00 +30°C° 0.4 mm 1 m/S 680 mmHg 60%
    13:00 +31°C° 0.4 mm 1 m/S 680 mmHg 56%
    14:00 +30°C° 0.6 mm 1 m/S 679 mmHg 60%
    15:00 +29°C° 0.6 mm 1 m/S 678 mmHg 64%
    16:00 +28°C° 0.6 mm 1 m/S 678 mmHg 68%
    17:00 +26°C° 1.1 mm 1 m/S 678 mmHg 74%
    18:00 +25°C° 1.1 mm 1 m/S 678 mmHg 81%
    19:00 +23°C° 1.1 mm 1 m/S 678 mmHg 88%
    20:00 +23°C° 0.5 mm 1 m/S 679 mmHg 88%
    21:00 +23°C° 0.5 mm 1 m/S 679 mmHg 87%
    22:00 +22°C° 0.5 mm 1 m/S 679 mmHg 87%
    23:00 +22°C° 0 mm 1 m/S 679 mmHg 87%

    übermorgen, 24 September, Dienstag

    Zeit Temperatur Niederschläge Wind Luftdruck Luftfeuchtigkeit
    00:00 +21°C° 0 mm 1 m/S 679 mmHg 86%
    01:00 +21°C° 0 mm 1 m/S 679 mmHg 86%
    02:00 +21°C° 0 mm 1 m/S 678 mmHg 84%
    03:00 +21°C° 0 mm 1 m/S 678 mmHg 83%
    04:00 +20°C° 0 mm 1 m/S 678 mmHg 82%
    05:00 +21°C° 0 mm 1 m/S 679 mmHg 81%
    06:00 +21°C° 0 mm 1 m/S 679 mmHg 80%
    07:00 +20°C° 0 mm 0 m/S 680 mmHg 79%
    08:00 +24°C° 0 mm 1 m/S 680 mmHg 74%
    09:00 +26°C° 0 mm 1 m/S 681 mmHg 68%
    10:00 +28°C° 0 mm 1 m/S 681 mmHg 63%
    11:00 +29°C° 0.1 mm 1 m/S 681 mmHg 59%
    12:00 +30°C° 0.1 mm 1 m/S 680 mmHg 55%
    13:00 +31°C° 0.1 mm 1 m/S 680 mmHg 51%
    14:00 +30°C° 0.6 mm 1 m/S 679 mmHg 55%
    15:00 +30°C° 0.6 mm 1 m/S 679 mmHg 59%
    16:00 +29°C° 0.6 mm 1 m/S 678 mmHg 63%
    17:00 +27°C° 1.6 mm 1 m/S 678 mmHg 72%
    18:00 +25°C° 1.6 mm 1 m/S 678 mmHg 81%
    19:00 +23°C° 1.6 mm 1 m/S 678 mmHg 90%
    20:00 +23°C° 1 mm 1 m/S 679 mmHg 90%
    21:00 +21°C° 1 mm 0 m/S 679 mmHg 91%
    22:00 +20°C° 1 mm 0 m/S 680 mmHg 92%
    23:00 +20°C° 0.6 mm 0 m/S 680 mmHg 92%

    25 September, Mittwoch

    Zeit Temperatur Niederschläge Wind Luftdruck Luftfeuchtigkeit
    00:00 +20°C° 0.6 mm 0 m/S 679 mmHg 92%
    01:00 +19°C° 0.6 mm 0 m/S 679 mmHg 93%
    02:00 +19°C° 0.4 mm 0 m/S 679 mmHg 93%
    03:00 +19°C° 0.4 mm 0 m/S 679 mmHg 93%
    04:00 +19°C° 0.4 mm 0 m/S 678 mmHg 92%
    05:00 +19°C° 0.2 mm 0 m/S 679 mmHg 91%
    06:00 +20°C° 0.2 mm 0 m/S 680 mmHg 90%
    07:00 +20°C° 0.2 mm 0 m/S 680 mmHg 89%
    08:00 +22°C° 0.2 mm 0 m/S 681 mmHg 83%
    09:00 +24°C° 0.2 mm 0 m/S 681 mmHg 77%
    10:00 +28°C° 0.2 mm 1 m/S 681 mmHg 71%
    11:00 +28°C° 1.1 mm 1 m/S 681 mmHg 71%
    12:00 +28°C° 1.1 mm 1 m/S 680 mmHg 71%
    13:00 +28°C° 1.1 mm 1 m/S 679 mmHg 71%
    14:00 +27°C° 1 mm 1 m/S 679 mmHg 76%
    15:00 +26°C° 1 mm 1 m/S 678 mmHg 81%
    16:00 +25°C° 1 mm 1 m/S 678 mmHg 85%
    17:00 +24°C° 0.5 mm 1 m/S 678 mmHg 88%
    18:00 +21°C° 0.5 mm 0 m/S 678 mmHg 90%
    19:00 +21°C° 0.5 mm 0 m/S 678 mmHg 92%
    20:00 +20°C° 0.1 mm 0 m/S 679 mmHg 92%
    21:00 +20°C° 0.1 mm 0 m/S 679 mmHg 92%
    22:00 +20°C° 0.1 mm 0 m/S 680 mmHg 91%
    23:00 +20°C° 0.1 mm 0 m/S 679 mmHg 91%

    26 September, Donnerstag

    Zeit Temperatur Niederschläge Wind Luftdruck Luftfeuchtigkeit
    00:00 +19°C° 0.1 mm 0 m/S 679 mmHg 91%
    01:00 +19°C° 0.1 mm 0 m/S 679 mmHg 91%
    02:00 +19°C° 0 mm 0 m/S 679 mmHg 91%
    03:00 +19°C° 0 mm 0 m/S 678 mmHg 91%
    04:00 +19°C° 0 mm 0 m/S 678 mmHg 90%
    05:00 +20°C° 0 mm 0 m/S 679 mmHg 90%
    06:00 +20°C° 0 mm 0 m/S 679 mmHg 89%
    07:00 +20°C° 0 mm 0 m/S 680 mmHg 88%
    08:00 +22°C° 0 mm 0 m/S 680 mmHg 81%
    09:00 +26°C° 0 mm 1 m/S 681 mmHg 74%
    10:00 +28°C° 0 mm 1 m/S 681 mmHg 67%
    11:00 +29°C° 0.4 mm 1 m/S 680 mmHg 63%
    12:00 +30°C° 0.4 mm 1 m/S 680 mmHg 59%
    13:00 +31°C° 0.4 mm 1 m/S 679 mmHg 56%
    14:00 +30°C° 0.8 mm 1 m/S 679 mmHg 59%
    15:00 +30°C° 0.8 mm 1 m/S 678 mmHg 61%
    16:00 +29°C° 0.8 mm 1 m/S 678 mmHg 64%
    17:00 +27°C° 1.1 mm 1 m/S 678 mmHg 71%
    18:00 +25°C° 1.1 mm 1 m/S 678 mmHg 78%
    19:00 +23°C° 1.1 mm 1 m/S 678 mmHg 86%
    20:00 +23°C° 0.4 mm 1 m/S 678 mmHg 85%
    21:00 +22°C° 0.4 mm 1 m/S 679 mmHg 85%
    22:00 +22°C° 0.4 mm 1 m/S 679 mmHg 85%
    23:00 +21°C° 0 mm 1 m/S 679 mmHg 84%

    27 September, Freitag

    Zeit Temperatur Niederschläge Wind Luftdruck Luftfeuchtigkeit
    00:00 +21°C° 0 mm 1 m/S 679 mmHg 84%
    01:00 +21°C° 0 mm 1 m/S 679 mmHg 83%
    02:00 +21°C° 0 mm 1 m/S 679 mmHg 83%
    03:00 +21°C° 0 mm 1 m/S 678 mmHg 82%
    04:00 +20°C° 0 mm 1 m/S 678 mmHg 82%
    05:00 +21°C° 0 mm 1 m/S 679 mmHg 81%
    06:00 +19°C° 0 mm 0 m/S 679 mmHg 80%
    07:00 +20°C° 0 mm 0 m/S 680 mmHg 79%
    08:00 +22°C° 0 mm 0 m/S 680 mmHg 74%
    09:00 +26°C° 0 mm 1 m/S 681 mmHg 68%
    10:00 +28°C° 0 mm 1 m/S 681 mmHg 63%
    11:00 +29°C° 0.2 mm 1 m/S 680 mmHg 60%
    12:00 +30°C° 0.2 mm 1 m/S 680 mmHg 56%
    13:00 +31°C° 0.2 mm 1 m/S 679 mmHg 53%
    14:00 +31°C° 0.7 mm 1 m/S 679 mmHg 56%
    15:00 +30°C° 0.7 mm 1 m/S 678 mmHg 58%
    16:00 +30°C° 0.7 mm 1 m/S 678 mmHg 60%
    17:00 +28°C° 1.3 mm 1 m/S 678 mmHg 69%
    18:00 +26°C° 1.3 mm 1 m/S 678 mmHg 77%
    19:00 +24°C° 1.3 mm 1 m/S 679 mmHg 86%
    20:00 +23°C° 1.6 mm 1 m/S 679 mmHg 87%
    21:00 +23°C° 1.6 mm 1 m/S 679 mmHg 89%
    22:00 +22°C° 1.6 mm 1 m/S 679 mmHg 90%
    23:00 +22°C° 0.6 mm 1 m/S 679 mmHg 90%
    Mehr zeigen